Regional Weather Roundup
Issued by NWS State College, PA

Home | Current Version | Previous Version | Text Only | Print | Product List | Glossary On
Versions: 1 2 3 4 5 6 7 8 9 10 11 12 13 14 15 16 17 18 19 20 21 22 23 24 25 26 27 28 29 30 31 32 33 34 35 36 37 38 39 40 41 42 43 44 45 46 47 48 49 50
000
ASUS41 KCTP 031410
RWRCTP

REGIONAL WEATHER ROUNDUP
NATIONAL WEATHER SERVICE STATE COLLEGE PA
900 AM EST TUE MAR 03 2015

Note: "fair" indicates few or no clouds below 12,000 feet with no
significant weather and/or obstructions to visibility.

* = STATION THAT DOES NOT REPORT PRECIPITATION /E.G. RAIN...SNOW...ETC/
    THUNDER OR FOG.

PAZ002>004-007>009-013>016-020>023-029>032-031500-
WESTERN PENNSYLVANIA

CITY           SKY/WX    TMP DP  RH WIND       PRES   REMARKS
ERIE           CLOUDY    21   9  59 SE14      30.16F WCI   8
MEADVILLE        N/A     19   8  62 VRB6      30.13F WCI  11
FRANKLIN*      CLOUDY    18   7  62 SE12      30.16F WCI   5
NEW CASTLE     FAIR      22  12  65 E3        30.17F
BEAVER COUNTY  CLOUDY    23  14  68 E8        30.14F WCI  14
BUTLER*        CLOUDY    21  12  68 SE6       30.18F WCI  14
PITTSBURGH INT CLOUDY    24  15  68 E9        30.14F WCI  14
PITTSBURGH     CLOUDY    24  12  60 E8        30.15F
INDIANA*       CLOUDY    25  16  68 VRB5G14   30.21F
LATROBE        CLOUDY    28  16  59 SE6       30.20F
WASHINGTON CO* CLOUDY    25  16  68 E6        30.14F
$$

PAZ004>006-010>012-017>019-024>028-033>037-041-042-045-046-049>053-031500-
CENTRAL PENNSYLVANIA

CITY           SKY/WX    TMP DP  RH WIND       PRES   REMARKS
BRADFORD       CLOUDY    14   8  77 SE8       30.14F WCI   3
DUBOIS         CLOUDY    16   8  71 SE9       30.17F WCI   4
CLEARFIELD     CLOUDY    14   8  77 N6        30.24F WCI   5
JOHNSTOWN      CLOUDY    20  11  68 SE14      30.16F WCI   7
ALTOONA        CLOUDY    20  10  65 S5        30.28F WCI  13
STATE COLLEGE  CLOUDY    18  10  73 CALM      30.29F
WILLIAMSPORT   CLOUDY    17   9  70 SE6       30.36F WCI   9
SELINSGROVE    CLOUDY    22  12  65 CALM      30.39F
FT INDIANTOWN  CLOUDY    23   9  55 SE5       30.41R
CAPITAL CITY   CLOUDY    25  11  55 SE8       30.42R
HARRISBURG     CLOUDY    25  11  55 SE5       30.42R
YORK           CLOUDY    25  11  55 VRB6      30.40S
$$

PAZ038>040-043-044-047-048-054-055-060>062-067>071-031500-
EASTERN PENNSYLVANIA

CITY           SKY/WX    TMP DP  RH WIND       PRES   REMARKS
SCRANTON       CLOUDY    18   8  65 CALM      30.35F
MOUNT POCONO   CLOUDY    15   8  73 SE5       30.27F WCI   8
ALLENTOWN      CLOUDY    22  10  60 CALM      30.43S
QUAKERTOWN*    PTSUNNY   23  10  58 E3        30.43S
READING        CLOUDY    24  10  55 CALM      30.42F
LANCASTER      CLOUDY    24  12  60 SE5       30.43R
COATESVILLE    CLOUDY    27  14  59 E6        30.42R
POTTSTOWN      CLOUDY    24   9  52 CALM      30.45S
BLUE BELL      PTSUNNY   28  12  50 CALM      30.43S
DOYLESTOWN     PTSUNNY   23  10  57 CALM      30.42S
WILLOW GROVE   NOT AVBL
NORTH PHILA    PTSUNNY   27   9  46 NE7       30.46F
PHILADELPHIA   CLOUDY    28  11  48 E6        30.47F
$$



USA.gov is the U.S. government's official web portal to all federal, state and local government web resources and services.